RH
37 35 35 34 34 35 36 37 38 38 38 40 43 43 43 43 43 42 42 42 43 43 46 50 50 50 50 51 52 52 52 51 49 47 45 43 41 38 36 33 30 28 27 26 25 24 21 17 14 11 8 7 6 6 6 6 6 6 6 5 5 5 6 6 5 5 4 4 4 4 5 5 5 7 7 7 8 8 9 9 9 10 9 9 10
36 35 35 35 37 38 39 39 39 40 40 42 44 44 44 45 45 45 46 46 47 48 50 54 54 53 53 52 53 53 52 52 49 46 45 43 41 40 37 34 31 30 29 28 27 25 22 18 15 11 9 7 7 6 6 6 6 6 5 5 5 5 6 6 5 4 4 3 4 3 4 5 5 6 7 7 8 9 9 9 9 10 10 10 10
35 35 37 38 40 40 38 39 41 41 42 43 46 46 47 48 49 50 51 52 53 53 55 58 59 58 57 56 55 54 53 52 49 46 44 43 41 39 38 35 33 32 31 30 28 26 23 19 15 12 10 8 7 6 6 6 6 5 5 5 5 5 6 6 5 4 4 3 3 3 3 4 4 5 7 8 8 9 10 10 10 10 10 11 11
36 37 40 41 41 40 41 43 44 44 45 47 49 50 51 52 54 55 57 59 59 59 62 64 65 65 63 61 58 55 54 52 49 47 45 42 40 39 39 38 35 33 32 30 29 26 23 19 15 13 10 9 7 6 6 6 6 6 5 5 4 5 5 6 5 4 4 4 3 3 3 3 4 4 6 8 9 9 11 11 10 10 10 11 12
38 41 45 46 44 45 48 48 48 50 51 53 55 56 58 59 60 61 62 64 65 65 67 69 71 71 68 66 62 59 57 55 51 48 45 43 41 40 40 39 37 35 32 30 28 25 23 20 15 13 11 9 8 6 6 6 6 6 5 5 5 5 5 5 5 4 4 4 4 3 3 3 3 4 5 6 9 10 11 11 11 11 11 11 13
40 44 48 48 49 51 54 54 54 55 58 61 63 64 66 67 68 69 69 69 70 70 70 72 73 72 70 69 66 63 62 58 54 50 47 45 44 42 41 39 38 37 34 31 27 24 22 19 15 13 11 9 8 7 6 6 6 6 5 5 5 5 5 5 4 4 4 4 4 4 3 3 3 3 4 5 7 10 11 11 12 13 12 13 14
41 45 48 49 51 54 57 58 58 60 63 65 68 70 71 73 73 73 73 74 75 76 75 74 73 71 70 69 66 65 63 58 55 53 49 47 46 44 42 40 39 38 35 32 28 23 20 18 14 13 12 10 8 6 6 6 6 6 6 6 5 5 6 5 4 4 4 4 4 4 4 3 3 3 3 4 5 8 10 11 12 13 14 14 15
42 46 50 52 53 55 57 59 59 61 63 65 68 70 71 72 72 73 74 77 79 81 81 78 74 70 70 68 65 65 63 58 56 54 51 50 48 46 43 41 39 37 36 34 29 23 19 16 14 12 11 10 8 6 6 6 6 6 6 6 5 6 6 5 5 4 4 5 4 4 4 4 3 3 3 3 4 6 9 11 12 14 15 15 15
44 48 52 54 54 55 56 59 60 60 61 63 63 63 64 66 67 70 74 77 81 84 84 81 76 73 73 70 68 67 64 60 57 55 54 52 50 48 45 41 38 36 35 33 28 23 19 16 13 11 11 10 7 6 6 6 6 6 6 6 6 6 6 6 5 4 4 5 5 5 4 4 3 3 3 3 4 4 7 10 12 14 15 16 16
48 52 53 53 53 54 56 58 59 58 57 56 55 55 58 61 63 68 73 75 78 80 81 81 77 76 74 72 72 69 65 62 60 58 57 54 51 49 46 41 38 35 33 31 27 23 19 16 13 11 11 9 7 6 6 6 6 6 6 6 6 6 6 6 5 4 4 5 6 5 4 4 3 3 3 3 3 4 5 8 11 14 16 17 17
53 54 55 55 55 56 58 59 59 58 54 51 51 54 58 61 64 68 72 72 72 74 75 75 75 75 74 73 74 71 67 66 63 61 59 55 52 48 45 41 36 33 31 29 26 22 18 16 13 11 10 9 7 6 6 6 6 6 6 6 6 6 6 6 6 5 5 5 6 6 5 4 4 3 3 3 3 3 4 6 9 13 16 17 17
56 58 59 60 62 64 64 64 62 58 54 52 55 58 61 64 66 69 72 71 69 70 71 72 73 73 73 74 74 72 71 69 66 64 60 55 51 46 42 38 35 32 29 25 23 19 16 14 12 11 10 9 7 6 6 6 6 6 6 6 6 6 6 6 6 6 5 5 6 7 7 5 4 3 3 3 3 3 3 4 6 9 13 16 17
59 62 66 67 68 68 66 65 62 58 57 58 60 62 64 66 67 70 72 71 69 70 70 72 72 73 73 73 72 71 71 70 67 64 59 53 48 43 38 34 32 30 26 23 20 16 14 12 11 10 10 9 7 6 6 6 6 6 6 7 6 6 6 6 6 6 6 5 5 7 8 6 5 4 3 3 3 3 3 3 4 6 9 13 15
63 68 72 72 69 66 63 61 59 58 59 61 63 65 66 69 69 70 72 71 69 69 69 70 71 71 72 70 68 67 67 67 65 61 55 48 43 38 34 31 29 27 24 21 17 15 12 11 10 10 10 9 7 6 6 6 6 6 6 7 7 6 6 5 6 7 7 6 5 7 8 8 6 4 4 4 3 3 4 4 4 4 6 9 13
72 76 74 69 64 61 60 58 58 60 63 65 68 69 71 72 71 71 72 72 70 69 68 67 67 67 66 66 65 64 64 62 59 53 46 40 35 32 29 26 25 22 20 18 15 13 12 10 9 9 9 9 7 6 6 6 6 6 7 7 7 6 6 5 5 6 8 7 6 6 8 8 7 5 4 4 4 4 4 4 4 5 6 8 10
77 75 67 62 59 58 57 57 59 63 67 72 74 76 75 74 73 73 73 72 70 68 65 64 63 62 62 64 64 62 59 54 48 40 34 30 27 25 22 21 19 18 16 15 14 12 11 9 8 9 9 8 7 7 6 6 6 6 7 7 7 7 6 5 5 6 8 8 7 6 7 8 8 5 5 5 5 5 4 4 5 6 9 11 11
70 64 59 57 56 56 56 58 63 69 73 78 80 80 78 75 73 72 71 70 68 65 63 62 62 62 63 65 62 57 49 41 33 28 24 22 21 19 17 16 15 14 13 13 12 12 10 8 8 8 9 8 7 7 6 6 6 6 7 7 7 7 6 6 5 6 7 8 8 7 6 8 8 6 5 5 5 5 5 5 5 7 10 15 17
61 58 57 56 54 55 58 63 70 76 79 82 82 80 77 74 71 69 68 67 64 62 61 62 63 65 66 63 55 44 34 26 22 19 17 17 16 15 14 13 12 12 12 11 11 11 9 8 8 8 8 8 7 6 6 6 6 6 7 7 7 7 6 6 6 6 7 8 8 8 7 7 8 8 5 5 5 5 5 5 5 6 9 15 18
57 57 55 53 53 56 62 70 76 80 82 81 80 77 74 72 70 68 66 64 63 62 63 66 68 67 61 51 38 27 21 17 15 14 13 13 13 12 11 11 11 11 10 10 10 9 8 7 7 8 8 8 7 6 6 6 6 6 7 7 7 7 7 6 6 6 7 7 8 8 8 7 8 8 6 5 5 5 5 6 6 6 7 11 14
56 54 52 52 55 61 68 75 79 81 81 78 74 70 69 69 69 67 67 66 67 68 70 70 66 57 45 32 23 17 14 13 12 12 12 12 11 11 11 10 10 10 9 9 9 8 7 7 7 8 8 7 7 6 6 6 6 6 7 7 7 7 7 6 6 7 6 7 7 8 9 9 8 8 7 5 5 5 6 5 6 6 6 7 10
54 52 51 54 61 68 75 80 82 82 78 73 68 65 65 66 67 68 69 71 72 72 70 63 51 38 27 19 15 14 12 12 12 11 11 11 11 10 10 10 9 9 8 8 8 7 7 6 7 7 7 7 6 6 6 6 6 6 7 7 7 7 7 7 7 7 7 7 7 7 8 10 9 8 7 6 5 4 5 5 5 6 6 6 7
53 53 56 62 70 76 81 84 83 79 73 67 63 62 62 63 65 67 69 70 70 65 56 44 31 22 17 14 13 12 12 12 11 11 11 11 10 10 9 9 8 7 7 7 7 6 6 6 6 7 7 7 6 6 6 6 6 6 7 7 7 7 7 7 7 7 7 7 7 7 8 9 11 9 8 7 6 4 5 5 5 5 6 6 6
56 60 67 73 78 81 81 79 76 71 67 63 60 59 60 60 60 61 61 59 55 46 36 27 20 16 14 14 13 12 12 12 11 10 10 9 9 8 8 7 6 6 6 6 6 6 6 6 6 6 7 6 6 6 6 6 6 6 7 7 7 7 7 7 7 8 8 7 7 7 7 8 10 11 9 8 7 5 4 4 5 5 5 6 5
62 70 76 78 80 78 75 72 68 64 61 58 56 55 54 52 51 49 46 40 33 26 21 17 15 14 14 14 13 12 10 10 9 8 8 7 7 6 6 6 5 6 6 6 6 6 5 5 6 6 6 6 6 6 6 6 6 6 7 8 7 8 8 7 8 8 8 8 8 7 7 8 9 11 11 10 8 6 5 4 5 5 4 5 5
69 75 78 78 75 71 67 64 61 58 55 53 51 48 46 44 43 37 29 22 17 15 14 14 14 15 15 14 12 9 8 7 7 6 6 5 5 5 5 5 5 5 5 5 6 5 5 5 5 6 6 6 6 6 6 5 6 6 7 8 8 8 8 8 8 8 8 8 8 8 8 7 8 10 12 11 9 8 6 4 4 5 5 4 5
70 73 73 72 68 64 61 59 56 54 52 50 46 43 40 38 33 25 17 13 12 12 13 14 14 14 12 10 8 7 5 5 5 5 4 4 4 5 5 5 5 5 5 6 5 5 5 5 5 5 5 6 6 6 6 5 6 6 7 8 8 8 8 8 9 8 8 8 9 9 8 7 8 9 11 12 11 9 7 5 4 4 5 4 4
69 68 66 64 61 60 58 55 52 50 49 46 43 39 35 28 21 15 12 12 12 12 12 12 11 9 8 7 6 5 4 4 4 4 4 4 4 5 5 5 5 5 5 6 5 5 5 4 5 5 5 5 6 6 6 5 6 7 7 8 8 8 8 9 9 9 8 9 9 9 9 8 7 9 11 12 12 11 9 7 5 4 4 5 4
72 67 63 60 59 57 54 51 49 47 45 41 36 31 25 18 14 12 11 12 12 11 9 8 6 6 5 5 5 4 4 4 4 4 4 5 5 5 5 5 5 5 5 5 5 5 5 5 5 5 5 5 5 6 6 5 6 7 7 8 7 7 8 9 9 9 9 9 9 9 9 8 8 8 10 11 11 11 10 8 6 4 4 4 5
71 66 64 61 58 55 51 48 46 44 41 33 24 19 15 12 11 11 12 11 9 7 6 5 5 5 5 5 4 4 4 4 4 4 4 5 5 5 5 5 5 5 5 5 5 5 4 5 5 5 5 5 5 6 6 6 6 7 7 8 8 7 8 9 9 9 9 9 10 10 9 8 8 8 9 10 11 11 11 10 7 5 4 4 4
69 66 63 59 55 52 49 47 44 39 30 20 13 11 10 10 11 11 9 7 5 5 5 5 5 5 5 5 4 4 4 4 4 4 4 4 4 4 4 4 4 5 5 5 5 4 4 5 5 5 5 5 5 6 6 6 6 7 7 8 8 8 8 9 10 9 9 10 10 10 10 9 8 9 9 9 10 11 11 10 9 6 5 4 4
65 61 57 53 51 49 47 43 36 27 17 11 9 9 9 9 9 8 6 4 4 5 5 5 5 4 4 4 3 3 3 3 3 3 3 3 4 4 4 4 4 4 4 4 4 4 4 4 5 5 5 5 5 5 6 6 6 6 7 7 8 8 8 9 10 9 10 10 10 10 10 9 8 9 9 9 9 11 11 11 10 8 5 4 4
58 54 51 49 48 46 41 33 23 15 10 8 8 8 8 9 7 5 4 4 4 5 4 4 4 3 3 3 3 3 2 3 3 2 3 3 3 3 3 3 4 4 4 4 4 4 4 5 5 5 5 5 5 6 6 6 6 6 7 8 8 8 8 9 9 10 10 11 11 10 10 10 9 9 9 9 9 9 11 11 10 9 6 5 4
53 51 48 47 46 41 31 20 12 9 8 8 8 8 8 6 4 4 4 4 5 4 4 4 3 2 2 2 2 2 2 2 2 2 3 2 2 3 3 3 3 3 3 4 4 4 4 5 5 5 5 5 5 6 6 6 6 7 7 8 8 8 8 9 9 10 11 11 11 11 10 10 10 10 9 9 9 9 9 11 11 10 8 6 4
51 48 47 47 44 33 21 12 9 8 8 8 9 8 6 5 4 4 4 5 4 4 3 3 2 2 2 2 2 2 2 2 2 2 2 2 2 2 2 3 3 3 3 3 4 4 4 5 5 5 5 5 6 6 6 6 6 7 8 8 8 8 8 9 9 10 11 12 11 11 11 10 11 11 10 9 9 9 9 10 11 11 9 6 5
48 47 46 43 33 21 12 9 8 8 8 9 9 6 5 4 4 4 5 5 4 3 3 2 2 2 2 2 2 2 2 2 2 2 2 2 2 2 2 3 3 3 3 3 4 4 4 4 5 5 5 5 6 6 6 6 7 7 8 9 8 9 8 9 10 10 11 12 12 11 11 11 11 12 11 9 8 9 9 9 10 11 10 8 6
47 45 40 30 19 12 9 8 8 8 9 9 7 5 4 4 4 4 4 4 3 2 2 2 2 2 2 2 2 2 2 2 2 2 2 2 2 2 2 3 2 3 3 3 4 4 4 5 5 5 5 5 6 7 6 6 7 7 8 9 8 8 9 9 10 10 11 12 12 12 12 11 12 12 11 10 9 8 9 9 9 10 11 10 7
49 40 27 17 12 9 8 8 8 9 9 8 6 5 4 4 5 5 4 3 3 2 2 2 2 2 2 2 2 2 2 2 2 2 2 2 2 2 2 2 2 3 3 3 4 4 4 5 5 5 5 5 6 7 7 7 7 8 9 9 9 8 9 10 10 11 12 12 12 13 13 12 12 12 12 11 9 9 8 9 9 10 11 11 9
42 26 16 12 10 9 8 9 10 10 9 8 6 5 5 5 5 5 4 3 3 2 3 2 2 2 2 2 2 2 2 2 2 2 2 2 2 2 2 3 2 3 3 3 4 4 4 5 5 5 5 5 6 7 7 7 7 8 9 9 9 9 9 10 11 11 12 12 13 14 15 14 13 13 12 11 10 9 9 8 9 9 10 11 11
23 14 11 10 9 9 10 11 11 10 8 7 5 5 5 6 5 4 3 3 3 3 2 2 2 2 2 2 2 2 2 2 2 2 2 2 2 2 2 2 2 3 3 4 4 4 5 4 5 5 5 6 7 7 7 7 8 9 10 10 9 10 9 10 11 12 12 12 14 16 16 15 14 13 12 11 10 9 9 9 9 9 9 11 12
12 10 9 9 9 11 12 11 10 8 7 5 5 5 6 5 5 4 3 3 3 3 2 2 3 2 2 2 2 2 2 2 2 2 2 2 2 2 2 3 3 3 3 4 4 4 5 5 4 5 5 6 7 8 7 8 8 9 10 10 10 10 10 11 12 12 12 13 15 17 17 15 14 14 13 12 10 9 9 9 10 9 9 10 13
10 9 8 10 12 13 13 11 9 7 5 5 5 6 6 5 4 3 3 3 3 2 3 3 2 2 2 2 2 2 2 2 2 2 2 2 2 2 3 3 3 3 4 4 5 5 5 5 5 5 5 6 7 8 8 8 9 10 10 10 10 10 10 11 12 12 13 14 16 18 17 15 14 15 14 13 11 9 10 10 10 10 9 11 13
8 9 11 13 14 14 13 10 7 5 5 5 6 6 5 4 4 3 3 3 3 3 3 3 3 3 2 2 3 3 2 2 2 2 2 3 2 2 3 3 3 4 4 4 5 5 5 5 5 5 6 6 7 8 8 8 9 10 11 10 10 11 11 12 13 13 14 16 18 18 17 16 15 14 15 14 12 10 10 9 10 10 10 11 13
9 12 13 14 14 13 10 8 6 5 5 5 6 6 5 4 3 3 3 3 3 3 3 3 3 3 2 3 3 2 3 3 3 3 2 3 3 2 3 3 3 4 4 5 5 5 5 5 5 5 6 6 7 8 9 9 10 10 11 11 11 11 12 13 13 14 15 17 18 18 17 16 15 15 15 14 13 11 10 9 10 11 11 11 12
13 14 14 13 12 10 7 6 6 5 5 6 6 5 4 3 3 3 3 3 3 3 3 3 3 3 3 3 3 3 3 3 2 3 3 2 3 3 3 3 4 4 5 5 5 6 6 6 5 6 6 7 8 9 9 9 10 11 11 12 12 12 13 13 14 15 17 19 19 18 17 16 15 15 15 15 14 12 10 10 10 11 11 11 12
14 14 13 11 8 7 6 6 6 6 6 6 5 5 4 3 3 3 3 3 3 3 3 3 3 3 3 3 3 3 3 3 3 3 3 3 3 3 3 4 4 5 5 6 6 6 6 6 6 6 7 7 8 9 10 10 10 11 12 13 13 13 14 14 15 17 19 20 20 18 17 15 15 15 15 15 15 13 11 11 11 12 12 11 12
13 11 9 8 7 6 6 6 7 7 6 5 5 4 3 3 3 3 3 4 3 3 3 3 3 3 3 3 3 3 3 3 3 3 3 3 3 3 4 4 5 5 6 6 6 6 6 6 6 6 7 8 9 10 10 10 11 12 13 14 14 14 14 15 17 19 21 22 21 18 17 16 15 15 16 16 16 15 13 12 12 13 13 11 11
10 8 7 6 6 6 6 7 7 6 6 5 4 4 4 3 4 3 3 4 3 3 3 4 3 3 3 3 3 3 3 3 3 3 3 4 4 4 4 5 5 6 7 7 7 7 7 6 7 7 8 9 9 10 11 11 12 13 14 15 14 15 16 16 18 20 22 23 21 18 17 16 16 16 16 16 16 16 16 15 14 14 13 12 11
7 6 6 6 6 6 7 7 6 5 5 4 4 4 4 4 4 4 4 3 3 3 3 3 4 4 3 3 3 3 4 3 4 4 4 4 4 5 5 5 6 6 7 7 7 7 7 7 7 8 9 9 10 11 11 12 13 14 15 15 16 16 17 17 18 20 22 23 22 19 17 17 16 16 16 16 17 17 18 18 17 15 13 12 12
6 6 6 6 6 6 6 6 5 5 4 4 4 4 4 4 4 4 4 4 4 4 3 3 4 4 4 4 4 4 4 4 4 4 4 4 5 5 5 6 7 7 8 8 8 8 8 8 8 9 9 10 10 11 12 13 14 15 15 16 17 18 18 18 19 20 22 23 22 19 18 17 17 17 17 18 18 19 20 19 18 16 14 13 13
6 6 7 7 6 6 5 5 4 4 3 4 4 4 4 5 4 4 4 4 4 4 4 4 4 4 4 4 4 4 4 4 4 5 5 5 5 6 6 6 7 8 8 8 9 9 9 9 9 9 10 10 11 12 13 14 14 15 16 17 18 19 18 19 19 20 21 21 21 19 18 18 18 18 19 19 20 21 21 21 19 17 16 15 15
7 7 7 6 6 5 5 4 4 4 4 4 4 4 4 5 4 4 4 4 4 4 4 4 4 4 4 4 4 4 4 4 5 5 5 6 6 7 7 7 8 8 9 9 9 10 10 10 10 11 11 11 11 12 13 14 15 15 16 18 19 19 19 19 20 20 20 20 19 19 19 19 19 19 20 20 21 22 23 23 20 18 17 18 17
Wind_Speed
46 46 46 46 45 46 46 47 49 50 51 52 53 55 56 58 59 60 61 62 64 65 66 68 70 70 71 72 73 74 75 75 75 75 75 76 75 75 75 75 74 73 73 74 75 76 79 80 82 84 83 79 74 70 68 68 68 69 68 67 66 64 66 71 75 79 83 87 93 100 107 113 117 123 128 130 131 133 134 136 138 138 138 139 142
47 46 46 45 45 47 48 49 51 52 53 54 56 58 59 61 62 64 65 67 68 69 70 72 74 75 75 76 77 77 78 78 78 77 77 77 77 76 77 76 75 74 74 74 75 76 78 79 80 82 82 78 74 70 67 66 67 67 67 66 65 63 64 69 72 76 80 84 90 97 103 110 116 122 128 132 133 135 137 138 139 140 140 140 142
48 46 45 45 47 49 51 52 54 55 57 58 60 61 62 64 66 67 69 71 72 73 74 75 77 79 79 80 81 81 81 82 81 80 79 78 78 77 78 77 77 76 75 75 75 76 77 78 78 80 81 77 73 69 66 65 65 65 66 66 65 63 63 66 70 73 77 82 87 93 99 105 112 119 126 132 135 137 139 141 141 141 141 141 142
48 46 45 46 49 52 54 55 57 59 60 62 64 65 66 68 70 71 73 75 76 77 78 79 81 83 84 84 85 85 85 85 84 83 82 80 79 79 79 79 79 78 76 76 75 75 76 77 77 78 79 77 73 69 66 64 64 64 64 65 64 63 62 64 68 71 75 80 85 90 95 100 107 114 122 130 135 138 141 143 143 142 141 141 142
48 46 47 50 52 55 57 59 60 62 64 65 67 68 70 72 74 75 77 79 80 81 82 83 85 86 87 88 89 89 89 89 88 86 85 83 82 82 81 81 80 80 78 77 76 75 76 76 75 76 76 75 72 68 65 63 62 63 63 64 64 62 62 63 65 68 73 77 82 87 91 96 102 109 117 126 133 138 141 143 144 144 142 141 143
46 47 50 53 55 58 60 62 63 64 66 68 70 71 73 75 77 79 80 82 84 84 85 86 88 89 90 92 92 93 93 93 92 90 88 87 86 85 84 82 82 81 80 78 77 76 75 75 74 74 74 73 71 68 65 62 61 61 62 63 63 62 61 62 63 65 70 74 79 84 88 92 97 104 111 119 129 136 141 142 144 145 144 143 144
47 48 52 55 58 60 61 64 65 66 67 69 71 73 75 77 79 81 83 85 87 88 89 90 91 93 94 95 95 96 96 96 95 93 92 90 89 88 86 84 83 82 81 80 79 77 75 74 73 72 72 72 70 67 64 62 60 60 60 61 62 62 61 61 61 63 67 71 76 80 84 88 93 100 106 114 122 132 139 141 142 144 146 145 146
49 51 55 58 60 61 62 64 66 67 68 70 73 74 76 78 80 83 85 87 89 91 93 94 95 96 97 98 98 99 99 98 97 96 95 93 92 91 89 86 84 83 82 81 80 78 76 74 72 71 71 70 69 66 63 61 60 59 58 59 61 61 60 60 61 61 63 68 73 77 81 85 89 96 103 109 117 125 134 139 141 143 145 146 147
51 53 57 59 61 62 63 66 67 69 70 72 74 76 77 80 82 84 87 89 91 94 96 98 99 99 101 101 101 102 102 101 100 99 97 96 95 94 92 89 86 84 82 82 81 79 76 74 71 69 69 69 68 66 63 61 59 58 58 58 59 60 60 59 60 61 61 64 70 74 78 82 86 92 99 105 112 120 129 136 140 142 145 146 147
53 56 59 60 62 64 65 68 70 72 73 74 76 78 80 82 85 87 90 92 94 96 98 100 101 102 103 104 104 105 104 104 103 102 100 99 97 96 94 91 88 85 83 82 81 79 77 75 72 69 67 67 67 65 62 60 58 58 58 57 58 59 59 58 59 61 61 62 66 71 75 79 83 87 94 101 108 115 123 131 137 141 144 146 147
56 58 61 63 66 68 70 72 74 76 78 79 80 82 84 86 88 91 94 96 97 99 101 102 104 105 106 106 107 107 107 106 105 104 103 101 99 97 95 92 90 87 84 82 81 80 77 75 72 68 66 66 66 64 62 59 58 57 57 57 57 58 58 57 58 60 61 60 63 68 73 77 81 84 89 96 103 109 117 125 133 138 142 145 146
60 62 65 68 70 73 75 77 79 81 82 83 85 86 88 90 92 95 97 99 101 102 104 105 107 108 109 109 110 109 109 109 107 106 105 102 100 98 95 92 90 88 85 83 80 79 77 74 72 68 65 65 64 64 61 59 57 57 57 57 57 57 57 56 56 58 61 60 61 65 71 75 78 82 86 91 98 105 111 118 126 134 140 144 145
64 67 70 72 74 77 79 81 82 84 86 87 89 90 92 94 96 98 101 103 104 105 107 108 109 110 111 112 111 111 111 110 109 108 106 103 101 98 95 92 90 89 86 83 81 78 76 73 71 68 65 64 64 63 61 59 57 56 56 56 56 56 56 55 54 56 60 61 60 62 68 73 77 80 84 88 94 100 106 111 117 125 133 140 144
68 71 73 75 77 79 81 83 85 87 89 90 92 94 96 98 100 102 104 106 108 109 110 111 112 113 113 114 113 112 112 111 110 109 107 104 101 98 95 92 90 89 86 84 81 78 75 72 69 67 65 64 64 62 61 59 57 56 55 55 56 56 56 55 53 54 58 61 60 61 65 71 75 79 83 87 91 97 102 107 112 117 123 132 139
72 75 77 78 80 81 83 85 88 90 92 94 96 98 100 102 104 105 108 110 111 112 113 114 114 115 115 115 115 114 113 112 110 108 106 103 100 97 94 92 89 87 85 83 80 78 75 71 67 65 64 63 63 62 60 59 57 56 55 54 55 55 56 55 52 52 55 59 61 60 62 68 73 78 83 87 91 95 100 106 110 114 118 124 130
76 77 79 80 82 84 86 88 90 92 95 97 99 101 103 105 107 109 111 113 115 116 116 117 117 117 117 117 117 115 114 112 109 107 104 101 99 96 93 90 88 86 83 81 79 77 75 70 66 63 62 62 62 61 60 58 57 55 54 54 54 55 55 54 52 51 52 56 61 61 61 65 71 77 82 87 90 94 99 104 109 114 118 122 125
78 80 80 82 84 86 88 91 93 95 97 100 102 105 107 109 111 113 115 117 118 119 119 119 119 119 119 119 118 116 113 110 107 105 102 99 97 95 92 89 87 84 81 78 76 76 74 70 65 62 61 61 61 60 59 58 57 55 54 54 54 54 55 54 52 51 51 53 59 62 61 63 68 74 81 86 90 94 98 103 108 113 118 123 126
80 82 83 85 86 88 91 93 96 99 101 103 105 108 111 114 116 118 119 120 121 122 122 122 122 121 121 120 118 115 111 108 105 102 99 97 96 93 91 88 85 82 78 75 74 73 72 68 65 62 60 60 60 59 58 58 57 55 54 54 54 54 55 54 52 50 50 51 55 61 63 62 65 71 78 84 89 93 97 102 106 112 117 122 127
83 84 85 87 89 91 94 96 99 102 104 107 109 112 115 117 120 122 123 124 125 125 125 125 125 123 122 119 116 112 109 106 103 100 98 96 94 92 89 86 84 80 76 72 71 71 70 67 64 61 60 60 59 58 57 56 56 55 53 53 54 53 54 54 52 50 50 50 52 57 62 63 64 68 74 81 87 92 96 101 105 109 114 120 124
84 86 88 90 92 95 97 100 103 106 108 111 113 115 118 120 122 124 126 127 128 129 129 128 126 124 121 117 114 110 107 104 102 99 97 95 93 90 87 84 81 78 73 70 69 69 68 65 62 61 60 59 59 57 56 55 55 54 53 53 54 54 54 53 52 50 50 49 50 54 59 63 64 66 70 77 84 90 95 99 103 107 112 116 121
87 89 91 94 96 99 102 104 107 110 113 115 118 120 121 123 125 126 128 129 130 130 130 128 125 122 118 115 111 108 105 103 100 98 96 94 91 88 85 82 78 74 70 68 67 67 67 64 61 60 59 59 58 56 55 54 54 53 52 52 53 54 53 53 51 50 50 49 49 51 55 61 65 66 67 72 79 86 92 96 101 105 109 113 118
92 94 96 98 101 103 106 108 111 114 117 120 122 123 124 126 127 128 129 130 130 129 128 126 123 119 116 113 110 107 104 101 98 96 94 91 89 85 82 79 75 71 69 67 66 66 66 63 61 59 58 58 57 56 54 54 53 52 51 51 53 53 53 52 51 50 50 49 48 49 52 57 63 65 66 68 74 81 88 93 98 102 107 111 114
96 99 101 103 105 107 110 112 115 118 121 123 125 127 128 129 129 129 129 128 128 126 124 122 120 117 115 111 108 104 101 98 96 93 91 89 86 83 80 77 73 70 68 66 65 65 64 62 60 58 58 58 56 55 54 53 52 51 50 50 52 53 53 52 50 50 50 48 48 48 50 53 59 63 66 67 70 76 82 89 94 98 103 108 111
99 102 104 107 109 112 114 117 119 122 124 126 128 129 130 130 130 129 127 125 123 121 120 118 116 114 112 109 106 102 97 95 93 91 88 85 83 81 78 75 71 69 67 66 65 65 63 61 59 57 57 57 55 54 53 52 51 50 49 49 51 52 52 51 49 49 49 48 47 48 49 51 55 59 64 67 68 71 77 83 89 94 99 104 108
102 104 107 110 113 116 119 121 124 126 129 131 131 131 130 129 129 127 124 120 117 115 113 112 111 109 108 106 104 100 95 92 90 87 85 83 81 78 76 73 70 68 67 65 65 65 62 60 58 56 56 56 54 53 52 51 50 49 48 48 50 52 52 50 49 49 49 47 47 47 48 49 52 55 60 66 68 69 72 78 84 90 95 99 103
105 108 111 114 116 120 123 126 128 131 132 133 133 131 130 128 126 124 120 117 113 110 107 106 105 105 104 103 101 98 94 89 86 84 82 81 79 77 74 72 69 68 66 64 65 64 62 59 57 56 55 55 53 52 51 49 49 48 47 47 49 51 51 49 48 49 48 47 47 47 48 48 50 52 57 62 66 68 70 74 79 85 90 95 99
110 112 115 118 121 124 127 130 132 133 133 133 132 131 129 126 123 119 116 113 110 106 102 100 99 98 98 98 97 96 93 89 85 82 81 79 77 75 73 71 68 66 64 64 64 63 61 58 55 55 55 54 52 51 50 48 47 47 47 47 49 50 49 48 48 48 47 46 46 47 48 48 49 51 54 59 64 67 69 71 75 79 85 90 94
114 117 120 123 126 129 131 133 134 134 134 132 129 127 125 122 119 116 113 110 106 100 96 94 94 95 94 94 93 93 91 88 84 81 80 78 76 74 72 70 67 65 63 63 63 62 59 56 54 54 54 53 51 50 49 47 47 46 47 47 49 49 48 48 48 48 46 45 46 47 48 48 48 49 52 57 61 64 67 69 72 76 80 85 90
118 121 124 128 130 133 134 135 136 135 133 129 124 121 118 116 114 112 108 104 99 94 91 90 92 93 92 91 90 89 88 86 83 80 78 77 75 73 71 69 66 64 63 63 62 60 57 55 53 53 53 52 50 48 47 46 46 46 47 47 47 47 47 48 48 47 45 44 45 47 48 48 47 48 51 55 58 62 65 67 70 73 76 80 86
122 125 128 131 133 135 136 137 136 134 130 124 119 115 112 110 107 104 99 95 92 89 88 88 90 91 90 88 87 86 85 83 81 78 76 75 74 72 69 67 65 62 62 61 60 58 55 53 52 52 52 51 49 47 46 46 46 46 46 46 46 46 47 48 48 46 44 44 46 47 48 47 46 47 50 53 56 59 62 65 68 70 73 77 81
125 128 131 133 135 136 137 136 134 131 126 119 115 111 108 104 100 96 92 91 89 88 87 87 87 87 85 83 82 80 79 78 76 74 73 72 71 69 67 65 62 61 61 60 58 56 54 51 51 51 50 50 47 45 45 45 45 46 46 45 45 45 46 47 47 45 43 44 46 47 47 47 46 47 49 52 54 57 60 63 65 68 71 74 77
129 132 134 135 137 137 136 133 130 125 120 115 112 108 103 99 95 92 91 90 88 86 86 85 84 83 80 78 76 74 73 72 71 70 69 69 68 66 64 61 60 60 59 58 56 54 52 50 50 50 49 48 46 44 44 45 45 46 46 44 44 45 46 47 47 44 43 44 46 47 47 46 45 46 49 50 52 55 58 60 63 65 68 71 75
133 135 137 138 138 138 135 130 126 122 118 114 110 105 100 96 92 90 90 90 87 84 83 82 81 79 76 74 71 69 68 67 67 66 66 65 64 62 60 58 58 58 57 55 54 52 50 49 49 48 48 47 44 43 44 44 44 45 45 44 43 44 46 47 46 43 42 44 46 47 47 46 45 46 49 49 51 53 56 58 60 63 65 68 72
136 137 138 139 139 137 133 128 124 121 118 113 108 104 99 95 93 90 90 90 86 81 79 78 77 76 74 71 69 66 64 63 63 62 62 62 60 59 57 56 56 55 54 53 51 49 49 48 47 47 46 45 43 42 43 43 44 44 43 43 43 44 46 46 45 43 42 44 46 47 47 45 44 46 48 49 50 51 54 56 58 61 64 66 69
137 138 139 139 137 134 129 125 122 119 116 111 106 103 99 97 95 93 91 89 83 77 75 74 72 72 70 68 66 64 62 60 59 59 59 58 57 55 54 54 54 53 52 50 48 48 47 46 46 45 45 43 42 41 42 43 43 42 42 43 43 44 45 45 44 42 42 43 46 47 47 45 44 45 47 48 49 49 51 54 56 58 61 64 66
139 138 138 136 133 130 126 122 119 116 113 109 105 103 101 100 98 94 90 87 82 76 73 71 69 67 66 64 62 60 59 58 56 55 55 54 53 52 51 52 51 51 50 48 46 46 46 45 44 44 43 42 40 40 41 41 42 41 41 42 43 43 44 44 43 42 41 43 45 46 46 45 44 44 46 48 48 48 49 51 54 56 59 62 64
140 138 136 133 130 127 124 120 117 114 111 108 105 104 103 101 99 95 90 86 82 77 72 70 67 64 62 61 59 57 56 55 54 53 52 51 50 50 50 50 50 49 48 46 45 45 44 44 43 43 42 41 39 39 40 40 40 40 41 42 42 42 43 43 42 41 41 43 44 45 45 45 43 43 46 47 48 48 48 49 52 54 57 59 62
138 135 131 128 126 124 122 119 115 112 110 109 108 107 105 102 99 95 90 85 81 76 71 68 66 63 61 59 57 55 54 52 51 51 50 49 49 48 48 48 48 47 46 44 44 43 43 42 42 41 41 39 38 38 39 39 39 39 39 40 41 41 42 42 41 41 41 42 43 44 45 45 43 43 45 47 47 47 47 47 50 52 54 56 59
133 129 126 124 124 122 120 117 114 112 110 110 109 108 105 102 97 92 87 83 78 73 69 66 64 62 60 58 56 54 52 50 49 49 48 47 47 47 46 46 46 44 43 43 42 42 42 41 41 40 40 38 37 37 37 37 37 37 38 40 40 41 41 40 40 41 41 42 42 42 44 44 43 43 45 46 46 46 46 46 48 51 52 53 55
127 125 124 123 123 122 119 116 113 111 110 109 108 107 103 99 95 90 85 82 76 71 68 65 63 61 59 56 54 52 50 48 47 47 46 46 45 45 44 44 43 42 42 41 41 40 40 40 39 39 38 37 36 36 36 36 35 36 37 39 40 40 40 39 40 40 41 41 41 42 43 44 43 43 44 46 46 46 45 45 46 49 50 50 52
125 124 124 123 122 121 118 115 113 111 109 108 106 104 100 95 91 87 83 80 75 70 67 66 63 60 58 56 53 51 49 47 46 45 44 44 43 43 42 42 41 40 40 40 39 39 39 38 38 38 37 36 35 35 35 34 34 35 37 38 39 39 38 38 39 40 40 40 40 41 42 43 42 42 44 45 46 45 45 45 45 46 47 48 51
123 123 122 121 120 118 116 114 112 110 108 106 103 100 96 92 88 84 81 78 74 69 66 65 63 60 58 55 52 50 47 46 44 43 42 42 41 41 41 40 39 39 39 39 38 38 37 37 37 37 36 35 34 33 33 33 33 35 36 37 38 37 37 38 39 39 39 39 40 40 42 42 42 42 43 45 45 45 45 45 44 44 45 47 51
122 121 120 118 116 115 114 113 111 109 107 103 99 96 94 90 86 82 79 76 73 68 64 63 61 59 57 54 51 48 46 44 43 41 41 40 40 40 39 38 37 37 37 37 37 36 36 36 37 36 35 34 33 32 32 32 32 34 35 36 36 36 37 37 38 38 39 39 39 40 41 41 41 41 42 44 45 45 45 44 44 43 44 46 49
120 118 117 115 114 113 112 112 110 107 104 100 96 94 92 88 84 81 78 76 73 69 64 62 59 57 55 52 49 46 45 43 42 40 40 39 39 38 38 37 36 36 36 35 35 35 35 36 36 35 34 33 32 32 32 32 32 33 34 35 36 36 37 37 37 37 38 38 39 39 40 40 41 41 41 43 44 45 44 44 43 43 43 44 46
117 116 115 113 112 111 110 110 108 105 102 98 94 92 89 86 83 80 77 75 73 70 65 62 60 56 53 51 48 45 43 42 41 40 39 39 38 37 36 35 35 34 34 34 33 34 34 35 35 34 33 32 31 31 31 31 31 32 33 35 36 36 36 36 36 36 37 37 38 39 39 40 40 41 41 41 43 44 44 43 42 42 42 42 43
115 113 112 111 110 108 107 106 104 102 99 96 92 89 87 84 81 78 76 74 72 69 64 61 59 56 52 49 46 43 42 41 40 39 39 38 37 35 34 34 33 33 32 32 32 33 34 34 34 33 32 31 31 31 30 30 30 31 33 35 36 36 36 35 35 35 36 37 38 38 38 39 40 40 40 40 41 43 43 42 41 41 41 41 42
113 111 110 108 107 105 104 102 100 98 96 93 89 86 85 83 80 77 75 72 70 67 63 59 56 54 51 47 45 42 41 40 39 38 37 36 35 34 34 33 33 32 31 31 31 32 33 33 33 32 31 31 31 30 30 30 30 32 33 35 35 35 35 36 35 35 35 36 37 38 38 39 40 40 39 39 40 41 41 41 40 39 40 40 40
110 109 108 106 104 102 101 99 97 95 92 89 86 83 82 81 78 75 73 71 68 65 62 57 53 52 49 46 43 41 40 39 38 37 36 36 35 34 33 33 32 31 31 31 31 32 32 32 31 31 31 31 30 29 29 29 31 32 34 34 35 35 36 36 35 35 35 36 37 37 37 38 39 39 38 38 38 39 40 40 39 39 38 39 39
108 107 106 104 102 99 98 96 94 92 89 86 84 82 80 79 77 73 71 69 66 63 60 56 51 49 47 44 42 40 38 37 37 36 35 35 34 33 33 33 32 31 30 30 30 31 31 31 31 31 31 30 30 29 29 30 31 32 33 34 34 35 36 36 35 35 35 36 36 36 37 37 38 38 38 37 37 38 38 38 38 38 37 37 38
106 105 103 102 100 98 96 94 92 89 87 84 82 80 78 77 75 72 69 67 64 61 59 56 51 47 45 43 41 39 37 36 35 35 34 34 33 33 33 32 32 31 31 30 30 30 30 30 30 31 31 30 30 29 29 30 31 32 33 33 34 35 36 35 35 35 36 36 36 36 36 36 37 37 37 37 36 37 37 37 37 37 37 36 36
103 102 100 99 98 96 95 92 90 87 85 83 81 78 76 74 74 71 68 66 63 60 57 55 51 47 44 42 40 38 37 36 35 34 34 33 33 33 33 32 32 31 31 31 30 29 29 30 30 30 31 31 30 29 30 31 32 32 32 33 34 35 35 35 35 36 36 36 36 36 36 36 36 36 36 36 36 36 36 36 37 37 36 36 35
Wind_Direction
314 314 314 314 314 315 316 316 315 315 315 315 315 315 315 315 315 316 316 316 316 317 317 317 316 315 315 314 314 313 312 312 310 309 308 307 306 306 305 304 303 303 303 303 302 301 299 297 295 293 292 290 288 284 280 276 272 269 266 262 258 255 251 249 247 246 243 239 237 234 232 231 229 228 229 229 228 227 226 225 224 224 221 220 221
314 314 314 314 315 315 314 314 315 315 316 316 316 316 317 317 317 318 318 318 319 319 319 318 318 317 316 316 315 314 314 313 312 310 309 309 308 308 307 307 306 306 306 305 305 303 301 299 296 294 292 291 289 285 281 277 274 270 267 264 260 255 252 249 248 248 246 242 238 235 232 230 228 227 227 228 227 226 226 225 225 224 222 220 220
313 313 313 314 314 313 314 315 316 317 317 318 318 318 319 319 319 319 320 320 320 320 320 319 319 318 317 317 316 315 315 314 313 312 311 310 309 310 309 309 308 308 308 307 306 304 302 300 297 295 293 291 289 286 283 278 275 271 267 264 261 256 252 250 249 249 247 244 240 237 234 230 228 226 226 226 227 226 225 225 225 224 223 221 220
313 313 313 314 314 315 316 317 318 318 319 319 319 320 320 320 320 320 320 320 320 320 320 320 319 318 318 317 316 316 315 315 314 313 312 311 311 311 311 310 310 309 308 308 307 305 303 301 298 295 293 291 290 287 284 280 276 272 269 265 262 257 253 250 250 248 246 243 241 238 235 232 228 226 224 225 226 226 225 225 225 225 223 221 219
312 312 313 314 316 317 317 318 318 319 319 319 320 320 320 320 320 320 320 319 319 319 319 319 318 318 317 317 317 317 316 315 315 314 313 312 312 312 311 311 310 310 309 308 307 306 304 302 299 295 293 291 289 287 284 281 277 274 270 266 263 259 254 251 250 248 245 242 240 238 236 234 231 227 224 223 224 225 225 225 225 225 224 222 220
310 310 312 314 316 317 317 317 318 318 318 319 319 319 319 319 319 319 319 318 318 319 319 318 318 317 317 317 317 317 316 316 315 315 314 314 313 312 312 311 311 310 310 308 307 305 304 302 299 296 293 291 289 287 285 282 278 274 271 267 264 260 256 253 251 248 245 242 240 238 236 234 232 230 226 224 222 224 225 225 225 225 224 222 221
309 309 311 313 315 315 316 316 316 317 317 317 317 317 317 318 317 317 317 317 317 318 318 318 317 317 317 317 317 317 316 316 316 315 315 314 313 313 312 311 311 310 310 309 308 306 304 302 300 296 293 291 289 287 285 283 279 275 271 268 265 262 258 256 253 248 245 242 240 238 236 233 232 230 229 226 223 222 224 225 225 225 224 223 222
309 309 311 312 313 314 314 314 315 315 316 316 316 316 316 316 316 316 316 316 317 317 317 317 317 317 317 317 317 316 316 316 316 315 315 314 314 312 312 311 310 310 310 309 308 306 304 302 300 297 293 291 288 287 285 284 281 277 273 269 266 263 260 258 256 250 245 243 241 239 237 234 231 230 229 227 225 223 223 224 224 224 224 224 223
310 309 310 311 312 313 313 313 314 314 314 315 315 315 315 315 316 316 316 316 316 316 316 316 316 317 316 316 316 316 316 316 315 315 315 314 313 312 311 311 310 310 310 309 308 306 305 303 300 296 293 290 288 286 285 284 282 278 275 270 266 264 261 259 257 253 246 243 242 240 238 235 232 229 228 227 226 224 223 223 223 223 223 223 223
310 310 310 311 311 312 313 313 314 314 314 314 315 315 315 316 316 316 316 316 316 316 315 315 316 316 315 315 315 315 315 315 315 315 314 313 313 312 311 310 310 309 309 308 308 306 305 303 300 296 292 289 287 286 285 284 282 279 275 271 267 264 262 260 258 254 249 244 242 241 239 237 234 230 228 227 226 224 223 223 222 222 223 223 223
312 312 312 312 313 313 314 314 314 314 315 315 316 316 316 316 317 316 316 316 316 316 315 315 315 315 315 315 315 315 315 314 314 314 313 313 312 311 310 310 309 308 308 308 307 306 304 303 300 296 292 289 287 285 285 283 281 279 276 271 267 264 262 260 258 255 251 245 242 241 240 238 236 233 229 227 226 225 224 223 222 222 222 222 223
314 314 314 314 314 314 315 315 314 314 315 316 316 317 317 316 317 316 316 316 316 316 315 315 315 315 315 314 314 314 314 314 313 313 312 312 311 310 309 309 308 308 307 307 306 304 303 302 300 296 292 289 286 285 284 283 281 279 275 271 267 264 262 260 257 255 252 248 243 241 240 239 238 235 231 228 227 225 224 223 222 222 221 222 222
315 315 314 314 314 314 314 314 314 314 315 315 316 316 316 316 316 316 315 315 315 315 315 315 314 314 314 313 313 313 313 313 313 312 311 311 310 309 308 308 308 307 307 306 305 303 302 300 299 296 293 289 287 285 285 283 281 278 275 271 267 265 262 260 257 253 252 249 244 240 240 240 238 237 234 231 228 227 226 225 223 222 221 221 222
315 314 313 313 313 313 313 313 313 314 314 315 315 316 316 316 316 316 315 315 315 314 314 314 314 314 313 313 313 313 313 313 312 311 310 310 309 308 308 307 307 306 306 305 304 303 301 299 298 296 292 289 287 286 285 283 281 278 274 270 267 264 262 259 256 252 251 251 247 241 238 239 238 237 235 233 230 228 227 227 226 224 223 222 222
314 313 312 312 312 313 313 313 313 313 314 314 315 315 316 315 315 315 314 314 314 314 314 314 314 313 313 313 313 313 313 312 311 310 309 308 308 307 306 306 306 305 305 305 303 301 300 298 296 294 291 288 286 285 285 283 281 277 273 269 266 264 261 259 255 250 248 250 249 243 238 237 237 237 236 234 232 230 228 228 227 227 226 225 224
312 311 312 312 312 313 313 313 313 313 314 314 315 315 315 315 314 314 314 313 313 314 314 314 314 314 314 313 313 312 311 310 309 308 308 307 306 305 305 305 304 304 304 303 302 300 298 297 295 293 290 287 286 285 284 282 280 276 272 268 265 263 261 258 255 250 246 247 249 246 239 236 235 236 235 234 232 231 229 228 228 228 227 227 227
311 312 312 312 312 312 312 312 313 313 314 314 314 314 314 314 314 314 313 313 313 314 314 314 314 314 313 313 312 311 310 309 308 307 306 306 305 304 304 304 303 303 302 302 300 298 297 296 294 292 289 286 285 284 284 282 279 276 271 267 264 262 260 258 254 250 244 244 247 247 242 236 234 234 234 233 232 231 230 229 228 228 228 228 228
312 313 313 312 312 312 312 313 313 313 314 314 314 314 314 314 314 314 314 314 314 314 314 314 314 313 312 311 310 309 308 308 307 306 305 305 304 303 303 303 302 302 301 300 298 296 295 294 293 291 288 286 284 283 283 281 279 275 271 267 264 261 260 258 255 250 245 241 243 246 245 239 234 232 233 232 231 231 230 229 228 228 228 228 228
312 312 312 312 312 312 313 313 313 313 314 314 314 314 314 314 314 314 314 314 314 314 314 314 313 312 311 310 309 308 308 307 306 305 304 304 303 302 302 302 301 301 300 298 296 294 293 293 292 290 287 285 284 283 282 280 278 275 271 267 264 261 259 258 255 250 246 242 240 243 245 242 236 232 231 231 230 230 230 229 229 228 228 228 228
312 312 312 312 313 313 314 314 314 314 314 314 314 314 314 314 313 314 314 314 314 313 313 313 312 311 310 310 309 308 307 306 305 304 303 302 302 301 301 300 300 299 298 297 295 293 292 292 291 289 287 285 283 283 282 280 277 274 270 266 263 261 259 257 255 251 247 243 240 240 243 244 240 235 231 230 230 229 229 229 229 229 228 228 228
312 312 313 313 314 314 314 314 314 314 314 314 314 314 314 313 313 313 313 313 313 312 312 312 311 311 310 309 308 307 306 305 304 303 302 301 301 300 300 299 299 298 297 295 293 292 291 291 290 288 286 284 283 283 281 279 276 273 269 266 263 261 259 257 255 252 248 245 242 239 240 242 243 239 234 231 229 229 228 228 228 228 229 228 228
313 313 314 314 314 314 314 314 314 314 314 314 314 314 314 314 314 313 313 313 312 312 312 312 311 310 309 308 307 305 304 303 302 301 301 300 300 299 299 298 298 297 295 293 292 290 290 289 288 287 285 283 283 282 281 278 275 272 268 265 262 260 258 257 254 252 249 247 244 241 239 239 241 242 238 233 230 229 228 227 227 227 228 228 228
314 314 314 314 314 314 314 314 314 314 314 314 314 314 314 314 314 314 313 313 313 312 312 311 310 309 308 306 305 303 302 302 301 300 299 299 299 298 298 297 297 296 294 292 290 289 288 288 287 285 284 283 282 281 280 277 274 270 267 263 261 259 257 256 254 252 250 249 246 243 241 239 239 241 241 238 233 230 229 227 227 227 227 228 228
314 314 314 314 314 314 314 314 314 314 313 314 314 315 315 315 315 314 314 314 313 312 311 309 308 307 306 304 303 302 301 300 300 299 298 298 298 297 296 296 296 294 292 291 289 288 287 287 286 284 283 282 281 280 278 276 273 269 265 262 259 257 256 255 253 252 250 250 249 246 243 241 239 239 241 241 237 233 230 229 227 227 226 227 227
313 313 313 313 314 314 314 314 314 314 315 315 315 315 316 316 316 315 314 313 312 310 309 308 307 305 304 303 301 300 300 299 299 298 298 297 297 296 295 295 294 293 291 290 288 287 286 285 284 283 282 280 280 279 277 275 271 268 264 261 258 256 255 254 252 251 250 250 250 249 246 243 240 238 239 241 240 237 233 231 228 227 227 227 227
313 313 313 314 314 314 314 315 315 315 315 315 316 316 316 316 316 315 313 312 310 309 308 307 306 304 302 301 300 300 299 299 298 298 297 296 295 295 294 294 293 291 290 288 287 286 285 284 283 282 280 279 279 278 276 273 270 266 263 260 256 255 254 253 252 251 250 251 251 251 248 245 242 240 238 239 240 240 237 234 231 229 228 227 227
313 314 314 314 315 315 315 315 315 315 315 315 316 317 316 316 315 314 312 311 310 309 308 306 304 302 301 300 299 299 299 299 298 298 297 296 295 294 293 292 291 290 288 287 285 284 284 283 282 280 279 278 277 276 275 272 268 264 261 258 255 254 253 252 251 251 250 251 251 252 250 247 244 242 240 239 239 239 239 236 233 231 229 228 228
314 314 315 315 315 315 315 315 315 315 315 316 317 316 316 315 314 313 312 310 309 308 307 305 303 301 300 299 299 299 299 298 298 297 296 295 294 293 292 291 290 289 287 285 284 283 283 282 281 279 278 277 276 275 273 270 266 262 260 257 254 253 252 251 250 250 250 250 251 252 251 249 245 243 242 240 238 238 239 238 236 233 230 229 228
314 314 315 315 315 314 314 314 315 315 316 316 316 316 315 314 313 312 311 310 309 308 307 306 304 302 301 300 299 299 298 298 297 296 295 294 292 292 291 290 289 288 286 284 283 282 282 281 279 278 277 276 275 274 272 268 264 261 258 256 254 252 251 250 250 250 250 250 251 252 251 250 247 244 243 241 239 238 238 238 237 235 233 230 229
314 314 314 314 314 314 314 315 315 315 316 316 317 316 315 314 313 312 312 311 311 310 309 307 304 302 301 300 300 298 297 296 296 294 293 292 291 290 289 289 288 287 284 283 282 281 281 280 278 277 276 275 274 273 270 266 262 260 258 255 253 251 250 250 249 249 249 250 251 251 251 250 248 246 244 243 241 239 238 238 237 236 235 232 230
313 313 313 313 313 314 314 315 316 316 317 318 318 317 316 315 315 314 314 314 313 311 310 307 304 303 302 301 299 298 297 295 294 293 292 290 290 289 288 288 287 285 283 282 281 281 280 279 277 276 275 274 273 271 267 264 261 259 257 254 252 250 249 249 249 249 248 249 250 251 250 249 248 246 245 244 242 240 239 238 237 236 235 234 232
313 313 313 314 314 315 315 316 317 317 318 318 318 318 318 317 317 317 317 316 315 313 311 308 306 304 303 302 300 299 297 295 294 292 291 290 289 288 288 287 285 283 282 281 280 280 279 277 276 274 273 273 272 269 265 262 260 258 256 254 251 249 248 248 248 248 248 249 250 251 250 249 248 247 246 244 243 241 240 238 238 236 235 234 233
313 314 314 315 315 316 317 318 318 319 319 319 319 319 319 319 319 320 319 318 316 314 311 309 307 306 305 304 302 300 298 296 294 292 291 289 289 288 288 286 283 282 281 281 280 279 278 276 274 273 272 272 270 267 263 261 259 257 255 253 250 248 247 247 248 247 247 248 249 250 250 248 247 247 246 245 243 243 241 239 238 237 235 234 233
314 315 315 316 316 317 318 318 319 319 319 320 320 320 321 321 322 322 322 319 317 315 312 310 308 307 306 305 304 302 299 296 294 292 290 289 289 288 287 284 282 282 281 280 279 278 277 275 273 272 271 271 268 265 262 260 258 256 254 251 249 247 246 247 247 246 246 247 249 250 250 248 247 247 247 245 244 243 242 240 238 238 236 234 233
315 316 316 317 317 318 318 319 319 319 320 321 322 322 323 324 324 324 322 320 318 316 314 312 310 308 307 306 304 302 299 296 294 292 290 290 289 288 286 283 282 281 280 280 279 277 275 274 273 271 270 269 266 263 261 260 258 255 253 251 248 247 246 246 246 246 245 247 248 249 250 249 248 248 248 247 245 243 242 241 239 238 237 235 233
316 317 317 317 318 318 318 319 319 320 321 322 323 324 325 325 324 324 323 321 320 319 317 314 312 310 308 307 305 303 300 297 295 293 291 290 289 287 285 283 282 281 280 280 278 276 274 273 271 270 269 267 264 261 260 259 258 254 252 250 248 247 246 246 246 245 245 246 248 249 250 249 248 248 249 248 246 243 242 242 241 238 237 236 234
317 317 318 317 317 317 318 319 320 321 322 323 324 325 326 325 324 324 324 322 321 320 319 316 314 312 311 309 307 304 301 298 296 293 292 290 289 286 284 283 282 281 281 279 277 275 274 272 271 269 267 265 262 259 259 258 256 254 251 250 249 247 246 246 246 245 245 246 247 249 250 250 249 249 249 249 248 245 242 241 241 240 238 237 236
316 317 317 316 316 316 318 319 321 322 324 324 325 325 325 325 324 324 324 323 322 321 320 318 316 315 313 311 308 305 302 299 297 295 293 291 288 286 285 283 282 281 280 278 276 274 273 271 270 268 266 264 260 258 258 257 255 253 251 250 248 247 246 246 246 246 245 245 247 248 250 251 250 249 250 250 249 247 244 242 242 241 238 237 236
316 316 316 316 316 318 319 321 322 324 324 324 324 324 324 324 324 324 323 322 322 322 321 319 318 316 315 313 310 307 304 301 298 296 293 291 289 287 285 284 282 281 279 277 275 273 272 270 269 267 265 262 259 257 257 257 254 251 250 249 248 247 246 246 246 246 245 245 246 247 249 251 251 250 250 250 250 249 246 244 242 242 240 237 236
315 316 316 317 318 319 321 322 323 324 324 324 324 323 323 323 323 324 323 323 322 322 322 320 319 317 316 314 312 309 306 303 300 297 294 292 290 288 286 284 282 280 277 275 274 272 271 269 268 266 264 261 258 257 257 256 253 250 249 248 248 247 246 246 246 246 246 246 246 247 249 250 251 251 251 251 250 249 248 245 243 243 242 238 237
316 317 318 319 320 320 321 322 323 323 323 323 323 322 322 323 323 323 323 323 323 323 323 321 320 319 317 316 313 311 308 305 302 299 296 293 291 289 286 283 281 279 276 274 273 271 270 269 267 265 263 260 257 257 257 255 252 249 249 248 248 248 247 246 246 246 246 246 246 247 249 250 251 251 252 252 251 250 249 247 244 243 242 240 238
317 317 318 319 320 320 321 321 321 322 322 322 322 322 322 323 323 324 324 323 323 324 324 322 321 319 318 316 314 312 309 306 303 300 297 294 291 288 285 283 281 278 275 273 272 270 268 267 265 263 262 260 257 256 256 254 251 249 249 249 249 248 247 246 246 246 246 246 246 247 249 250 251 251 252 253 253 251 250 249 245 242 241 241 240
317 318 319 319 319 320 319 320 320 320 320 321 322 322 322 323 323 324 325 324 323 324 325 323 320 319 317 316 314 312 310 306 303 300 296 293 290 287 285 283 280 277 275 273 271 269 267 265 263 262 260 259 257 255 255 254 252 250 250 250 249 248 247 246 246 246 247 247 247 248 249 250 251 251 251 253 254 253 252 250 247 243 240 240 241
318 318 319 319 319 319 319 318 319 319 320 322 323 323 323 323 324 324 325 324 323 324 325 323 321 319 317 316 315 313 310 307 303 300 296 293 290 288 286 283 280 277 274 272 270 268 265 263 262 261 259 258 256 255 255 254 253 251 251 250 250 248 247 247 246 246 247 247 248 248 249 251 251 251 252 253 254 254 253 251 249 245 241 239 240
318 318 318 318 318 318 318 318 318 319 321 323 323 323 322 323 324 325 325 324 323 324 325 324 321 319 318 316 314 313 310 306 303 300 297 295 292 289 286 283 279 276 274 271 269 267 264 262 261 260 258 257 255 255 255 254 254 253 251 251 250 249 248 247 246 246 247 248 249 250 250 252 252 252 252 253 254 255 254 252 250 247 244 240 239
318 318 317 317 317 317 317 318 319 320 322 323 323 323 322 323 324 325 324 324 323 323 324 323 320 318 317 315 314 312 309 306 304 301 299 296 293 290 286 282 279 276 273 270 268 265 263 262 261 259 257 256 255 255 255 255 255 253 251 250 250 249 248 247 246 245 246 247 249 250 251 253 253 253 253 253 254 255 255 254 251 248 246 242 240
317 317 316 317 317 317 317 318 319 321 322 322 323 323 323 323 324 324 323 323 322 322 322 322 319 317 316 315 313 312 309 307 305 303 300 297 294 290 286 282 279 276 273 270 267 264 262 261 260 258 257 255 255 255 255 255 254 253 251 251 251 250 249 247 246 245 246 247 249 250 252 253 254 254 253 253 254 255 256 256 253 250 248 245 242
316 316 316 317 317 318 318 319 320 321 322 322 323 323 323 322 323 323 322 322 321 321 321 320 318 316 315 314 313 311 309 307 305 304 301 298 294 290 286 282 279 276 273 269 266 263 261 260 259 258 257 255 255 255 255 255 254 252 252 252 251 250 249 248 246 245 245 247 248 250 251 252 254 254 254 254 254 255 256 256 255 253 250 248 245
315 316 317 317 318 318 319 320 321 321 322 323 323 323 322 321 321 322 321 320 320 319 319 319 319 317 314 313 312 310 309 307 305 304 301 298 294 290 286 283 280 277 273 269 266 263 262 260 259 258 257 256 255 255 255 255 254 253 253 252 251 251 250 249 247 246 246 247 248 249 251 252 253 255 255 255 256 256 256 257 256 255 253 251 248
316 317 317 318 319 320 320 321 321 322 323 323 323 322 321 320 320 320 320 319 319 319 319 319 319 317 315 312 311 310 308 307 305 303 301 298 295 291 288 284 281 277 273 269 266 264 262 260 259 258 257 256 255 256 256 255 255 254 253 252 252 251 251 249 249 248 247 248 248 249 250 251 253 254 255 256 257 257 257 258 257 257 255 253 251
316 317 318 319 320 320 320 321 322 322 323 322 322 321 320 320 319 319 319 318 318 319 319 319 319 318 315 313 311 310 308 306 304 303 301 298 294 291 288 285 282 278 274 270 267 264 262 260 258 257 257 257 256 256 256 257 257 256 254 252 252 251 251 250 250 250 250 250 250 250 251 251 252 253 254 256 256 257 257 258 258 258 257 255 254